Flag for Canada Weather past 2 weeks in Quispamsis, New Brunswick, Canada

Now
37 °F

Sprinkles. Low clouds.


Feels Like: 28 °F
Forecast: 32 / 51 °F
Wind: 16 mph from Northwest

Location: Saint John

Current Time: May 23, 2015 at 2:21:38 PM

Latest Report: May 23, 2015 at 1:00 PM


Visibility: 5 mi

Pressure: 30.03 "Hg

Humidity: 93%

Dew point: 36 °F

Location of QuispamsisLocation

Historic Weather in Quispamsis — Graph

°F

Quispamsis temperature yesterday

Maximum temperature yesterday: 52 °F (at 3:00 PM)
Minimum temperature yesterday: 41 °F (at 2:00 AM)
Average temperature yesterday: 47 °F

Past Weeks' High & Low Weather Summary

 TemperatureHumidityPressure
High68 °F (May 15, 12:00 PM)100% (May 9, 9:00 PM)30.42 "Hg (May 9, 9:00 PM)
Low28 °F (May 14, 3:00 AM)24% (May 16, 2:00 PM)29.49 "Hg (May 20, 5:00 PM)
Average48 °F75%30.04 "Hg
* Reported May 8 1:00 PM — May 23 1:00 PM, Quispamsis, Weather by CustomWeather, © 2015

Note: Actual official high and low records may vary slightly from our data, if they occured in-between our weather recording intervals... More about our weather records

Advertising

Quispamsis weather history for previous 24 hours

 ConditionsComfort  
Time TempWeatherWind HumidityBarometerVisibility
1:00 PM
Sat, May 23
37 °FSprinkles. Low clouds.16 mph93%30.03 "Hg5 mi
12:49 PM37 °FSprinkles. Low clouds.21 mph93%30.02 "Hg5 mi
12:00 PM39 °FSprinkles. Partly sunny.17 mph93%30.00 "Hg6 mi
11:00 AM37 °FSprinkles. Low clouds.8 mph93%30.00 "Hg6 mi
10:00 AM36 °FSprinkles. Low clouds.8 mph100%30.00 "Hg5 mi
9:46 AM36 °FSprinkles. Low clouds.3 mph93%30.00 "Hg5 mi
9:00 AM36 °FSprinkles. Overcast.9 mph93%30.00 "Hg5 mi
8:00 AM41 °FSprinkles. Partly sunny.3 mph81%29.98 "Hg10 mi
7:00 AM39 °FPartly sunny.10 mph81%29.96 "Hg15 mi
6:00 AM32 °FPassing clouds.6 mph100%29.94 "Hg15 mi
5:00 AM32 °FPassing clouds.No wind93%29.92 "Hg15 mi
4:00 AM34 °FPassing clouds.No wind93%29.93 "Hg15 mi
3:00 AM37 °FClear.8 mph87%29.90 "Hg15 mi
2:00 AM39 °FPassing clouds.7 mph87%29.92 "Hg15 mi
1:00 AM43 °FPassing clouds.9 mph76%29.91 "Hg15 mi
12:00 AM46 °FSprinkles. Passing clouds.6 mph87%29.90 "Hg15 mi
11:00 PM
Fri, May 22
48 °FSprinkles. Passing clouds.8 mph87%29.89 "Hg15 mi
10:00 PM46 °FSprinkles. Overcast.6 mph93%29.87 "Hg15 mi
9:00 PM46 °FSprinkles. Overcast.8 mph87%29.85 "Hg15 mi
8:00 PM46 °FPartly sunny.5 mph87%29.82 "Hg15 mi
7:00 PM50 °FPartly sunny.10 mph76%29.80 "Hg15 mi
6:00 PM50 °FPartly sunny.9 mph76%29.80 "Hg15 mi
5:00 PM50 °FPartly sunny.8 mph76%29.80 "Hg15 mi
4:00 PM50 °FMostly cloudy.10 mph76%29.80 "Hg15 mi
3:00 PM52 °FMostly cloudy.15 mph72%29.82 "Hg15 mi
2:00 PM48 °FLight rain. Mostly cloudy.8 mph76%29.84 "Hg15 mi
Weather by CustomWeather, © 2015

See weather overviewHow to use our weather pages